Location: Hermaringen
(48.5952°N, 10.2585°E)
Time: 23:37:18
(UTC+00:00)

Cosmos 1802 Rocket - Pass Details

Date: 18 November 2025
Orbit: 953 x 1011 km, 82.9° (Epoch: 05 December)

Event Time Altitude Azimuth Distance (km) Brightness Sun altitude
Rises 16:09:01 0° 192° (SSW) 3,729 7.6 -5.7°
Reaches altitude 10° 16:11:33 10° 194° (SSW) 2,784 6.9 -6.1°
Maximum altitude 16:17:58 76° 280° (W) 1,043 4.3 -7.1°
Drops below altitude 10° 16:24:25 10° 7° (N) 2,790 6.1 -8.1°
Sets 16:26:58 0° 9° (N) 3,738 6.8 -8.5°
